カタログに戻る

STARLINK-11530

運用中通信VLEO
NORAD 62562·PAYLOAD·🇺🇸 United States

打ち上げ Jan 10, 2025 から Cape Canaveral Space Force Station

Loading…

次のパス (今後24時間)

TLE

最新Source: CelesTrak SupGP

元期: Sep 15, 2026, 02:22 UTC

1 62562C 25006J   26258.09909722  .00032363  00000+0  25115-3 0  2586
2 62562  43.0006  78.5784 0001639 275.1082 217.4194 15.70842571    18

AllMySatでSTARLINK-11530をリアルタイム追跡

Download on the App Store